Location: Newark
(49.3667°N, 21.6167°E)
Time: 02:28:05
(UTC+00:00)

Envisat - Pass Details

Date: 14 December 2019
Orbit: 764 x 766 km, 98.1° (Epoch: 23 January)

Event Time Altitude Azimuth Distance (km) Brightness Sun altitude
Rises 05:28:56 0° 14° (NNE) 3,246 6.1 -8.1°
Reaches altitude 10° 05:31:15 10° 15° (NNE) 2,315 5.4 -7.8°
Maximum altitude 05:36:22 83° 104° (ESE) 779 3.2 -7.1°
Drops below altitude 10° 05:41:27 10° 193° (SSW) 2,297 5.7 -6.3°
Sets 05:43:44 0° 194° (SSW) 3,218 6.4 -6.0°
